Weather in Akhmanovo

Russia / Kirov Oblast     57°21′48″N   48°29′59″E
temp.,
°C
wind,
m/s
gust,
m/s
humid.,
%
clouds,
%
prec.,
mm/h
press.,
hPa
HPBL,
m
11 may, tue
tue1100:00+9n4796100 0.0 1025246
03:00+9n5896100 0.0 1026278
06:00+10ne4694100 0.0 1027351
09:00+13ne568598 0.0 1028480
12:00+18ne44696 0.0 1028752
15:00+20ne44625 0.0 1028894
18:00+19ne35720 0.0 1028211
21:00+14ene34870 0.0 102961
12 may, wed
wed1200:00+13ene35890 0.0 102983
03:00+12ene35900 0.0 102980
06:00+14ene36830 0.0 1030186
09:00+20e45662 0.0 1029525
12:00+23se44484 0.0 10281211
15:00+24se45395 0.0 10272335
18:00+22ese335528 0.0 102762
21:00+17sse226578 0.0 102715
13 may, thu
thu1300:00+15ese336359 0.0 102720
03:00+14se346395 0.0 102745
06:00+16ese356448 0.0 1027127
09:00+21se575295 0.0 1027516
12:00+24sse56405 0.0 10261804
15:00+24sse564196 0.0 10251689
18:00+20sse4862100 0.0 1024190
21:00+17sse4106499 0.0 1024204
14 may, fri
fri1400:00+16sse41165100 0.0 1023195
03:00+15sse41075100 0.2 1023176
06:00+16sse4979100 0.5 1023220
09:00+21sse59526 0.6 1022541
12:00+24s684394 0.0 10211208
15:00+25ssw5748100 0.0 10211595
18:00+22ssw3764100 0.0 1020193
21:00+18ssw3681100 0.3 1020108
15 may, sat
sat1500:00+16s35825 0.2 101969
03:00+15s47805 0.2 1020106
06:00+17s49746 0.0 1019216
09:00+22s69515 0.0 1018529
12:00+26ssw7103869 0.0 10181036
15:00+27ssw610405 0.0 10171550
18:00+24s612525 0.0 1016388
21:00+19s615595 0.0 1015322